| time (UTC) | temp F | wind direction | speed MPH | gust MPH | rain 1hr in | rain 24hr in | rain mn in | humidity % | barometer mb |
| 20260904120409 | 73 | 156 | 0.0 | 2.0 | 0.00 | 0.00 | 0.00 | 97 | 1006.6 |
| 20260904115903 | 73 | 142 | 0.0 | 2.0 | 0.00 | 0.00 | 0.00 | 97 | 1006.4 |
| 20260904115358 | 73 | 89 | 0.0 | 2.0 | 0.00 | 0.00 | 0.00 | 97 | 1006.4 |
| 20260904114853 | 73 | 180 | 0.0 | 2.0 | 0.00 | 0.00 | 0.00 | 97 | 1006.4 |
| 20260904114348 | 73 | 142 | 0.0 | 2.0 | 0.00 | 0.00 | 0.00 | 97 | 1006.3 |
| 20260904113843 | 73 | 130 | 0.0 | 2.0 | 0.00 | 0.00 | 0.00 | 96 | 1006.3 |
| 20260904113342 | 73 | 12 | 0.0 | 2.0 | 0.00 | 0.00 | 0.00 | 96 | 1006.3 |
| 20260904112837 | 74 | 171 | 0.0 | 2.0 | 0.00 | 0.00 | 0.00 | 96 | 1006.2 |
| 20260904112333 | 74 | 230 | 0.0 | 3.0 | 0.00 | 0.00 | 0.00 | 95 | 1006.1 |
| 20260904111828 | 74 | 309 | 0.0 | 1.0 | 0.00 | 0.00 | 0.00 | 95 | 1006.1 |
| 20260904111324 | 74 | 195 | 2.0 | 4.0 | 0.00 | 0.00 | 0.00 | 95 | 1006.3 |
| 20260904110820 | 74 | 215 | 2.0 | 3.0 | 0.00 | 0.00 | 0.00 | 95 | 1006.1 |
| 20260904110319 | 74 | 182 | 2.0 | 3.0 | 0.00 | 0.00 | 0.00 | 95 | 1006.0 |
| 20260904105819 | 74 | 253 | 0.0 | 2.0 | 0.00 | 0.00 | 0.00 | 95 | 1006.0 |
| 20260904105319 | 74 | 237 | 0.0 | 2.0 | 0.00 | 0.00 | 0.00 | 95 | 1005.9 |
| 20260904104814 | 74 | 188 | 0.0 | 3.0 | 0.00 | 0.00 | 0.00 | 95 | 1006.2 |
| 20260904104309 | 74 | 150 | 0.0 | 2.0 | 0.00 | 0.00 | 0.00 | 95 | 1006.1 |
| 20260904103807 | 74 | 25 | 0.0 | 2.0 | 0.00 | 0.00 | 0.00 | 95 | 1006.0 |
| 20260904103306 | 74 | 184 | 0.0 | 2.0 | 0.00 | 0.00 | 0.00 | 95 | 1006.0 |
| 20260904102801 | 75 | 205 | 0.0 | 1.0 | 0.00 | 0.00 | 0.00 | 94 | 1005.8 |
| 20260904102257 | 75 | 43 | 0.0 | 2.0 | 0.00 | 0.00 | 0.00 | 94 | 1006.0 |
| 20260904101753 | 75 | 31 | 0.0 | 1.0 | 0.00 | 0.00 | 0.00 | 93 | 1006.1 |
| 20260904101249 | 75 | 315 | 0.0 | 2.0 | 0.00 | 0.00 | 0.00 | 93 | 1006.1 |
| 20260904100745 | 75 | 315 | 0.0 | 2.0 | 0.00 | 0.00 | 0.00 | 93 | 1006.0 |
| 20260904100240 | 75 | 209 | 0.0 | 2.0 | 0.00 | 0.00 | 0.00 | 93 | 1006.0 |
| 20260904095740 | 75 | 209 | 0.0 | 2.0 | 0.00 | 0.00 | 0.00 | 93 | 1006.0 |
| 20260904095235 | 75 | 207 | 1.0 | 2.0 | 0.00 | 0.00 | 0.00 | 94 | 1005.9 |
| 20260904094731 | 75 | 202 | 1.0 | 2.0 | 0.00 | 0.00 | 0.00 | 94 | 1005.8 |
| 20260904094231 | 75 | 198 | 1.0 | 2.0 | 0.00 | 0.00 | 0.00 | 94 | 1006.2 |
| 20260904093727 | 75 | 230 | 0.0 | 1.0 | 0.00 | 0.00 | 0.00 | 94 | 1005.9 |
| 20260904093226 | 75 | 171 | 0.0 | 1.0 | 0.00 | 0.00 | 0.00 | 94 | 1005.8 |
| 20260904092722 | 75 | 235 | 0.0 | 2.0 | 0.00 | 0.00 | 0.00 | 93 | 1005.8 |
| 20260904092219 | 76 | 216 | 0.0 | 2.0 | 0.00 | 0.00 | 0.00 | 93 | 1005.8 |
| 20260904091714 | 76 | 242 | 1.0 | 2.0 | 0.00 | 0.00 | 0.00 | 92 | 1005.8 |
| 20260904091209 | 76 | 202 | 0.0 | 3.0 | 0.00 | 0.00 | 0.00 | 92 | 1005.7 |
| 20260904090705 | 76 | 206 | 1.0 | 3.0 | 0.00 | 0.00 | 0.00 | 93 | 1005.9 |
| 20260904090200 | 76 | 293 | 0.0 | 3.0 | 0.00 | 0.00 | 0.00 | 93 | 1005.7 |
| 20260904085655 | 76 | 224 | 0.0 | 1.0 | 0.00 | 0.00 | 0.00 | 93 | 1005.6 |
| 20260904085149 | 76 | 212 | 0.0 | 2.0 | 0.00 | 0.00 | 0.00 | 93 | 1005.6 |
| 20260904084644 | 76 | 205 | 0.0 | 2.0 | 0.00 | 0.00 | 0.00 | 93 | 1005.5 |
| 20260904084141 | 76 | 211 | 2.0 | 3.0 | 0.00 | 0.00 | 0.00 | 93 | 1005.4 |
| 20260904083637 | 76 | 199 | 2.0 | 3.0 | 0.00 | 0.00 | 0.00 | 92 | 1005.2 |
| 20260904083133 | 76 | 210 | 1.0 | 3.0 | 0.00 | 0.00 | 0.00 | 93 | 1005.2 |
| 20260904082627 | 76 | 281 | 2.0 | 3.0 | 0.00 | 0.00 | 0.00 | 94 | 1005.4 |
| 20260904082123 | 76 | 235 | 1.0 | 2.0 | 0.00 | 0.00 | 0.00 | 94 | 1005.4 |
| 20260904081618 | 76 | 261 | 1.0 | 3.0 | 0.00 | 0.00 | 0.00 | 94 | 1005.0 |
| 20260904081113 | 76 | 190 | 0.0 | 3.0 | 0.00 | 0.00 | 0.00 | 94 | 1005.2 |
| 20260904080604 | 76 | 209 | 2.0 | 5.0 | 0.00 | 0.00 | 0.00 | 95 | 1005.4 |
| 20260904080059 | 76 | 237 | 0.0 | 4.0 | 0.00 | 0.00 | 0.00 | 95 | 1005.5 |
| 20260904075555 | 76 | 224 | 2.0 | 4.0 | 0.00 | 0.00 | 0.00 | 95 | 1005.2 |
| 20260904075055 | 76 | 224 | 2.0 | 7.0 | 0.00 | 0.00 | 0.00 | 96 | 1005.2 |
| 20260904074554 | 76 | 207 | 4.0 | 6.0 | 0.00 | 0.00 | 0.00 | 96 | 1005.1 |
| 20260904074049 | 76 | 210 | 3.0 | 3.0 | 0.00 | 0.00 | 0.00 | 97 | 1005.2 |
| 20260904073544 | 76 | 225 | 3.0 | 6.0 | 0.00 | 0.00 | 0.00 | 97 | 1005.4 |
| 20260904073041 | 76 | 218 | 3.0 | 7.0 | 0.00 | 0.00 | 0.00 | 98 | 1005.2 |
| 20260904072536 | 76 | 219 | 3.0 | 6.0 | 0.00 | 0.00 | 0.00 | 98 | 1005.6 |
| 20260904072031 | 76 | 202 | 4.0 | 6.0 | 0.00 | 0.00 | 0.00 | 98 | 1005.7 |
| 20260904071527 | 76 | 199 | 3.0 | 6.0 | 0.00 | 0.00 | 0.00 | 99 | 1005.7 |
| 20260904071022 | 76 | 204 | 3.0 | 6.0 | 0.00 | 0.00 | 0.00 | 99 | 1005.6 |
| 20260904070520 | 76 | 220 | 2.0 | 7.0 | 0.00 | 0.00 | 0.00 | 99 | 1005.7 |
| 20260904070015 | 75 | 211 | 3.0 | 6.0 | 0.00 | 0.00 | 0.00 | 99 | 1005.6 |
| 20260904065510 | 75 | 217 | 4.0 | 6.0 | 0.00 | 0.00 | 0.00 | 99 | 1005.9 |
| 20260904065007 | 75 | 196 | 3.0 | 7.0 | 0.00 | 0.00 | 0.00 | 99 | 1005.9 |
| 20260904064502 | 75 | 204 | 3.0 | 6.0 | 0.00 | 0.00 | 0.00 | 99 | 1005.9 |
| 20260904063956 | 75 | 208 | 3.0 | 6.0 | 0.00 | 0.00 | 0.00 | 99 | 1006.0 |
| 20260904063448 | 75 | 219 | 8.0 | 8.0 | 0.00 | 0.00 | 0.00 | 99 | 1006.0 |
| 20260904062943 | 75 | 196 | 2.0 | 4.0 | 0.00 | 0.00 | 0.00 | 99 | 1005.7 |
| 20260904062439 | 75 | 201 | 3.0 | 7.0 | 0.00 | 0.00 | 0.00 | 99 | 1005.7 |
| 20260904061934 | 75 | 200 | 4.0 | 8.0 | 0.00 | 0.00 | 0.00 | 99 | 1006.0 |
| 20260904061431 | 75 | 204 | 4.0 | 7.0 | 0.00 | 0.00 | 0.00 | 99 | 1005.8 |
| 20260904060926 | 75 | 208 | 4.0 | 8.0 | 0.00 | 0.00 | 0.00 | 99 | 1005.9 |
| 20260904060422 | 75 | 212 | 4.0 | 7.0 | 0.00 | 0.00 | 0.00 | 99 | 1005.9 |
| 20260904055917 | 75 | 201 | 3.0 | 7.0 | 0.00 | 0.00 | 0.00 | 99 | 1006.0 |
| 20260904055413 | 75 | 198 | 2.0 | 8.0 | 0.00 | 0.00 | 0.00 | 99 | 1005.9 |
| 20260904054909 | 75 | 188 | 3.0 | 6.0 | 0.00 | 0.00 | 0.00 | 99 | 1006.0 |
| 20260904054404 | 76 | 203 | 3.0 | 5.0 | 0.00 | 0.00 | 0.00 | 99 | 1006.0 |
| 20260904053900 | 75 | 191 | 3.0 | 4.0 | 0.00 | 0.00 | 0.00 | 99 | 1006.3 |
| 20260904053358 | 75 | 198 | 2.0 | 4.0 | 0.00 | 0.00 | 0.00 | 99 | 1006.0 |
| 20260904052855 | 76 | 186 | 2.0 | 4.0 | 0.00 | 0.00 | 0.00 | 99 | 1006.1 |
| 20260904052351 | 76 | 189 | 3.0 | 4.0 | 0.00 | 0.00 | 0.00 | 99 | 1006.3 |
| 20260904051847 | 76 | 187 | 3.0 | 4.0 | 0.00 | 0.00 | 0.00 | 99 | 1006.1 |
| 20260904051342 | 76 | 159 | 2.0 | 4.0 | 0.00 | 0.00 | 0.00 | 99 | 1006.2 |
| 20260904050837 | 76 | 185 | 2.0 | 5.0 | 0.00 | 0.00 | 0.00 | 99 | 1006.1 |
| 20260904050334 | 76 | 211 | 3.0 | 5.0 | 0.00 | 0.00 | 0.00 | 99 | 1006.2 |
| 20260904045833 | 76 | 201 | 2.0 | 4.0 | 0.00 | 0.10 | 0.10 | 99 | 1006.3 |
| 20260904045328 | 76 | 156 | 3.0 | 6.0 | 0.00 | 0.10 | 0.10 | 99 | 1006.2 |
| 20260904044823 | 76 | 208 | 3.0 | 5.0 | 0.00 | 0.10 | 0.10 | 98 | 1006.1 |
| 20260904044319 | 76 | 204 | 4.0 | 8.0 | 0.00 | 0.10 | 0.10 | 98 | 1006.2 |
| 20260904043815 | 76 | 189 | 3.0 | 5.0 | 0.00 | 0.10 | 0.10 | 98 | 1006.3 |
| 20260904043311 | 76 | 204 | 3.0 | 7.0 | 0.00 | 0.10 | 0.10 | 98 | 1006.3 |
| 20260904042806 | 76 | 195 | 2.0 | 4.0 | 0.00 | 0.10 | 0.10 | 98 | 1006.2 |
| 20260904042306 | 76 | 197 | 2.0 | 4.0 | 0.00 | 0.10 | 0.10 | 98 | 1006.2 |
| 20260904041803 | 76 | 143 | 2.0 | 3.0 | 0.00 | 0.10 | 0.10 | 98 | 1006.1 |
| 20260904041259 | 76 | 185 | 2.0 | 5.0 | 0.00 | 0.10 | 0.10 | 98 | 1006.3 |
| 20260904040754 | 76 | 167 | 1.0 | 4.0 | 0.00 | 0.10 | 0.10 | 98 | 1006.2 |
| 20260904040250 | 76 | 202 | 2.0 | 3.0 | 0.00 | 0.10 | 0.10 | 98 | 1006.3 |
| 20260904035746 | 76 | 185 | 2.0 | 5.0 | 0.00 | 0.10 | 0.10 | 98 | 1006.3 |
| 20260904035241 | 76 | 218 | 3.0 | 5.0 | 0.00 | 0.10 | 0.10 | 98 | 1006.3 |
| 20260904034740 | 76 | 195 | 2.0 | 5.0 | 0.00 | 0.10 | 0.10 | 98 | 1006.3 |
| 20260904034236 | 76 | 174 | 3.0 | 4.0 | 0.00 | 0.10 | 0.10 | 98 | 1006.4 |
| 20260904033731 | 76 | 154 | 3.0 | 5.0 | 0.00 | 0.10 | 0.10 | 98 | 1006.3 |
| 20260904033228 | 76 | 202 | 3.0 | 3.0 | 0.00 | 0.10 | 0.10 | 98 | 1006.3 |
| 20260904032723 | 76 | 194 | 0.0 | 3.0 | 0.00 | 0.10 | 0.10 | 98 | 1006.4 |
| 20260904032222 | 76 | 127 | 3.0 | 5.0 | 0.00 | 0.10 | 0.10 | 98 | 1006.5 |
| 20260904031723 | 76 | 133 | 2.0 | 5.0 | 0.00 | 0.10 | 0.10 | 97 | 1006.4 |
| 20260904031218 | 76 | 190 | 3.0 | 4.0 | 0.00 | 0.10 | 0.10 | 97 | 1006.3 |
| 20260904030714 | 76 | 177 | 2.0 | 3.0 | 0.00 | 0.10 | 0.10 | 97 | 1006.4 |
| 20260904030209 | 76 | 115 | 3.0 | 4.0 | 0.00 | 0.10 | 0.10 | 97 | 1006.5 |
| 20260904025706 | 76 | 214 | 2.0 | 5.0 | 0.00 | 0.10 | 0.10 | 97 | 1006.4 |
| 20260904025200 | 77 | 164 | 1.0 | 5.0 | 0.00 | 0.10 | 0.10 | 96 | 1006.3 |
| 20260904024650 | 77 | 196 | 3.0 | 5.0 | 0.00 | 0.10 | 0.10 | 96 | 1006.2 |
| 20260904024145 | 77 | 213 | 1.0 | 5.0 | 0.00 | 0.10 | 0.10 | 96 | 1006.3 |
| 20260904023641 | 77 | 210 | 3.0 | 5.0 | 0.00 | 0.10 | 0.10 | 96 | 1006.3 |
| 20260904023137 | 77 | 199 | 4.0 | 5.0 | 0.00 | 0.10 | 0.10 | 96 | 1006.1 |
| 20260904022637 | 77 | 179 | 3.0 | 5.0 | 0.00 | 0.10 | 0.10 | 96 | 1006.1 |
| 20260904022134 | 77 | 159 | 3.0 | 5.0 | 0.00 | 0.10 | 0.10 | 96 | 1006.1 |
| 20260904021624 | 77 | 206 | 4.0 | 5.0 | 0.00 | 0.10 | 0.10 | 96 | 1006.0 |
| 20260904021118 | 77 | 182 | 2.0 | 4.0 | 0.00 | 0.10 | 0.10 | 96 | 1006.0 |
| 20260904020614 | 77 | 181 | 3.0 | 4.0 | 0.00 | 0.10 | 0.10 | 95 | 1006.1 |
| 20260904020108 | 77 | 189 | 2.0 | 4.0 | 0.00 | 0.10 | 0.10 | 95 | 1006.1 |
| 20260904015603 | 77 | 183 | 1.0 | 6.0 | 0.00 | 0.10 | 0.10 | 95 | 1006.0 |
| 20260904015102 | 77 | 199 | 2.0 | 5.0 | 0.00 | 0.10 | 0.10 | 95 | 1005.8 |
| 20260904014556 | 77 | 205 | 1.0 | 3.0 | 0.00 | 0.10 | 0.10 | 95 | 1006.0 |
| 20260904014051 | 77 | 182 | 1.0 | 4.0 | 0.00 | 0.10 | 0.10 | 94 | 1006.0 |
| 20260904013548 | 77 | 160 | 2.0 | 4.0 | 0.00 | 0.10 | 0.10 | 94 | 1006.0 |
| 20260904013044 | 77 | 147 | 1.0 | 4.0 | 0.00 | 0.10 | 0.10 | 94 | 1006.1 |
| 20260904012544 | 77 | 183 | 2.0 | 4.0 | 0.00 | 0.10 | 0.10 | 93 | 1006.1 |
| 20260904012043 | 77 | 196 | 2.0 | 3.0 | 0.00 | 0.10 | 0.10 | 93 | 1006.1 |
| 20260904011537 | 77 | 154 | 1.0 | 4.0 | 0.00 | 0.10 | 0.10 | 92 | 1006.3 |
| 20260904011033 | 78 | 174 | 1.0 | 4.0 | 0.00 | 0.10 | 0.10 | 92 | 1006.0 |
| 20260904010529 | 78 | 199 | 1.0 | 3.0 | 0.00 | 0.10 | 0.10 | 92 | 1005.9 |
| 20260904010025 | 78 | 220 | 3.0 | 5.0 | 0.00 | 0.10 | 0.10 | 91 | 1006.0 |
| 20260904005520 | 78 | 122 | 2.0 | 6.0 | 0.00 | 0.10 | 0.10 | 91 | 1006.0 |
| 20260904005015 | 78 | 213 | 3.0 | 5.0 | 0.00 | 0.10 | 0.10 | 91 | 1005.7 |
| 20260904004511 | 78 | 158 | 2.0 | 5.0 | 0.00 | 0.10 | 0.10 | 90 | 1005.8 |
| 20260904004010 | 78 | 195 | 1.0 | 4.0 | 0.00 | 0.10 | 0.10 | 89 | 1005.8 |
| 20260904003506 | 78 | 195 | 0.0 | 4.0 | 0.00 | 0.10 | 0.10 | 89 | 1005.7 |
| 20260904003001 | 79 | 202 | 3.0 | 6.0 | 0.00 | 0.10 | 0.10 | 88 | 1005.7 |
| 20260904002458 | 79 | 187 | 3.0 | 5.0 | 0.00 | 0.10 | 0.10 | 88 | 1005.8 |
| 20260904001956 | 79 | 169 | 1.0 | 6.0 | 0.00 | 0.10 | 0.10 | 87 | 1005.9 |
| 20260904001453 | 79 | 204 | 4.0 | 6.0 | 0.00 | 0.10 | 0.10 | 86 | 1005.7 |
| 20260904000947 | 80 | 183 | 2.0 | 5.0 | 0.00 | 0.10 | 0.10 | 86 | 1005.7 |
| 20260904000447 | 80 | 206 | 3.0 | 4.0 | 0.00 | 0.10 | 0.10 | 85 | 1005.6 |
| 20260903235942 | 80 | 181 | 3.0 | 5.0 | 0.00 | 0.10 | 0.10 | 85 | 1005.6 |
| 20260903235438 | 80 | 205 | 3.0 | 5.0 | 0.00 | 0.10 | 0.10 | 84 | 1005.7 |
| 20260903234937 | 81 | 186 | 2.0 | 6.0 | 0.00 | 0.10 | 0.10 | 83 | 1005.6 |
| 20260903234433 | 81 | 202 | 4.0 | 6.0 | 0.00 | 0.10 | 0.10 | 83 | 1005.9 |
| 20260903233930 | 81 | 195 | 2.0 | 6.0 | 0.00 | 0.10 | 0.10 | 82 | 1005.8 |
| 20260903233425 | 81 | 188 | 5.0 | 6.0 | 0.00 | 0.10 | 0.10 | 81 | 1005.9 |
| 20260903232919 | 81 | 172 | 5.0 | 6.0 | 0.00 | 0.10 | 0.10 | 81 | 1005.7 |
| 20260903232414 | 81 | 184 | 2.0 | 8.0 | 0.00 | 0.10 | 0.10 | 81 | 1005.5 |
| 20260903231909 | 81 | 180 | 4.0 | 9.0 | 0.00 | 0.10 | 0.10 | 80 | 1005.8 |
| 20260903231404 | 81 | 156 | 4.0 | 5.0 | 0.00 | 0.10 | 0.10 | 80 | 1005.7 |
| 20260903230859 | 82 | 197 | 7.0 | 8.0 | 0.00 | 0.10 | 0.10 | 79 | 1005.5 |
| 20260903230354 | 82 | 172 | 3.0 | 9.0 | 0.00 | 0.10 | 0.10 | 78 | 1005.5 |
| 20260903225850 | 83 | 163 | 4.0 | 8.0 | 0.00 | 0.10 | 0.10 | 78 | 1005.7 |
| 20260903225346 | 82 | 207 | 5.0 | 8.0 | 0.00 | 0.10 | 0.10 | 78 | 1005.7 |
| 20260903224842 | 82 | 176 | 3.0 | 7.0 | 0.00 | 0.10 | 0.10 | 78 | 1005.7 |
| 20260903224337 | 84 | 184 | 3.0 | 7.0 | 0.00 | 0.10 | 0.10 | 76 | 1005.6 |
| 20260903223833 | 83 | 178 | 2.0 | 6.0 | 0.00 | 0.10 | 0.10 | 77 | 1005.4 |
| 20260903223332 | 82 | 113 | 3.0 | 8.0 | 0.00 | 0.10 | 0.10 | 77 | 1005.9 |
| 20260903222827 | 83 | 191 | 5.0 | 7.0 | 0.00 | 0.10 | 0.10 | 75 | 1005.8 |
| 20260903222326 | 83 | 37 | 3.0 | 7.0 | 0.00 | 0.10 | 0.10 | 75 | 1005.7 |
| 20260903221820 | 83 | 169 | 3.0 | 7.0 | 0.00 | 0.10 | 0.10 | 75 | 1005.9 |
| 20260903221320 | 83 | 192 | 4.0 | 6.0 | 0.00 | 0.10 | 0.10 | 76 | 1005.8 |
| 20260903220818 | 83 | 189 | 6.0 | 14.0 | 0.00 | 0.10 | 0.10 | 74 | 1005.9 |
| 20260903220312 | 84 | 186 | 5.0 | 8.0 | 0.00 | 0.10 | 0.10 | 72 | 1005.8 |
| 20260903215805 | 83 | 211 | 5.0 | 10.0 | 0.00 | 0.10 | 0.10 | 74 | 1005.8 |
| 20260903215305 | 84 | 201 | 5.0 | 8.0 | 0.00 | 0.10 | 0.10 | 73 | 1005.6 |
| 20260903214759 | 84 | 109 | 6.0 | 11.0 | 0.00 | 0.10 | 0.10 | 72 | 1005.9 |
| 20260903214256 | 84 | 189 | 4.0 | 9.0 | 0.00 | 0.10 | 0.10 | 72 | 1005.9 |
| 20260903213750 | 84 | 189 | 4.0 | 10.0 | 0.00 | 0.10 | 0.10 | 71 | 1005.8 |
| 20260903213246 | 84 | 195 | 5.0 | 10.0 | 0.00 | 0.10 | 0.10 | 71 | 1005.9 |
| 20260903212741 | 84 | 193 | 9.0 | 11.0 | 0.00 | 0.10 | 0.10 | 71 | 1006.1 |
| 20260903212238 | 84 | 175 | 4.0 | 9.0 | 0.00 | 0.10 | 0.10 | 70 | 1006.2 |
| 20260903211731 | 85 | 214 | 6.0 | 13.0 | 0.00 | 0.10 | 0.10 | 70 | 1006.0 |
| 20260903211227 | 84 | 218 | 3.0 | 11.0 | 0.00 | 0.10 | 0.10 | 71 | 1005.9 |
| 20260903210723 | 84 | 188 | 3.0 | 10.0 | 0.00 | 0.10 | 0.10 | 72 | 1006.0 |
| 20260903210219 | 84 | 163 | 4.0 | 8.0 | 0.00 | 0.10 | 0.10 | 73 | 1005.8 |
| 20260903205718 | 84 | 162 | 3.0 | 9.0 | 0.00 | 0.10 | 0.10 | 72 | 1005.7 |
| 20260903205217 | 84 | 206 | 7.0 | 9.0 | 0.00 | 0.10 | 0.10 | 74 | 1006.1 |
| 20260903204713 | 84 | 181 | 5.0 | 12.0 | 0.00 | 0.10 | 0.10 | 73 | 1006.2 |
| 20260903204210 | 84 | 199 | 7.0 | 13.0 | 0.00 | 0.10 | 0.10 | 74 | 1005.9 |
| 20260903203704 | 83 | 192 | 9.0 | 11.0 | 0.00 | 0.10 | 0.10 | 74 | 1006.1 |
| 20260903203200 | 83 | 197 | 7.0 | 11.0 | 0.00 | 0.10 | 0.10 | 75 | 1006.3 |
| 20260903202654 | 83 | 176 | 3.0 | 10.0 | 0.00 | 0.10 | 0.10 | 74 | 1006.3 |
| 20260903202150 | 83 | 216 | 6.0 | 15.0 | 0.00 | 0.10 | 0.10 | 73 | 1006.3 |
| 20260903201643 | 83 | 200 | 9.0 | 10.0 | 0.00 | 0.10 | 0.10 | 74 | 1006.1 |
| 20260903201143 | 83 | 189 | 5.0 | 7.0 | 0.00 | 0.10 | 0.10 | 75 | 1006.1 |
| 20260903200638 | 82 | 193 | 4.0 | 6.0 | 0.00 | 0.10 | 0.10 | 76 | 1006.2 |
| 20260903200133 | 81 | 155 | 4.0 | 7.0 | 0.00 | 0.10 | 0.10 | 77 | 1006.4 |
| 20260903195624 | 81 | 187 | 2.0 | 6.0 | 0.00 | 0.10 | 0.10 | 78 | 1006.2 |
| 20260903195120 | 81 | 167 | 3.0 | 7.0 | 0.00 | 0.10 | 0.10 | 76 | 1006.5 |
| 20260903194614 | 81 | 152 | 3.0 | 8.0 | 0.00 | 0.10 | 0.10 | 77 | 1006.5 |
| 20260903194114 | 81 | 170 | 6.0 | 10.0 | 0.00 | 0.10 | 0.10 | 76 | 1006.4 |
| 20260903193611 | 82 | 186 | 4.0 | 7.0 | 0.00 | 0.10 | 0.10 | 76 | 1006.5 |
| 20260903193106 | 82 | 155 | 3.0 | 12.0 | 0.00 | 0.10 | 0.10 | 75 | 1006.9 |
| 20260903192603 | 80 | 192 | 2.0 | 9.0 | 0.00 | 0.10 | 0.10 | 77 | 1006.8 |
| 20260903192103 | 80 | 170 | 3.0 | 7.0 | 0.00 | 0.10 | 0.10 | 76 | 1006.7 |
| 20260903191559 | 80 | 199 | 5.0 | 9.0 | 0.00 | 0.10 | 0.10 | 77 | 1007.2 |
| 20260903191054 | 80 | 153 | 5.0 | 9.0 | 0.00 | 0.10 | 0.10 | 75 | 1007.2 |
| 20260903190553 | 80 | 146 | 3.0 | 6.0 | 0.00 | 0.10 | 0.10 | 74 | 1007.3 |
| 20260903190053 | 81 | 180 | 3.0 | 8.0 | 0.00 | 0.10 | 0.10 | 74 | 1007.1 |
| 20260903185548 | 81 | 204 | 3.0 | 12.0 | 0.00 | 0.10 | 0.10 | 73 | 1007.2 |
| 20260903185044 | 82 | 204 | 4.0 | 7.0 | 0.00 | 0.10 | 0.10 | 71 | 1007.5 |
| 20260903184535 | 82 | 172 | 3.0 | 8.0 | 0.00 | 0.10 | 0.10 | 72 | 1007.3 |
| 20260903184035 | 82 | 163 | 4.0 | 8.0 | 0.00 | 0.10 | 0.10 | 71 | 1007.4 |
| 20260903183528 | 82 | 130 | 2.0 | 7.0 | 0.00 | 0.10 | 0.10 | 71 | 1007.5 |
| 20260903183023 | 81 | 147 | 1.0 | 4.0 | 0.00 | 0.10 | 0.10 | 74 | 1007.4 |
| 20260903182522 | 80 | 188 | 3.0 | 5.0 | 0.00 | 0.10 | 0.10 | 73 | 1007.7 |
| 20260903182019 | 80 | 215 | 6.0 | 12.0 | 0.00 | 0.10 | 0.10 | 72 | 1007.8 |
| 20260903181512 | 80 | 201 | 4.0 | 11.0 | 0.00 | 0.10 | 0.10 | 72 | 1007.8 |
| 20260903181012 | 80 | 220 | 5.0 | 8.0 | 0.00 | 0.10 | 0.10 | 73 | 1007.4 |
| 20260903180507 | 81 | 168 | 2.0 | 3.0 | 0.00 | 0.10 | 0.10 | 74 | 1007.5 |
| 20260903180006 | 81 | 186 | 3.0 | 5.0 | 0.00 | 0.10 | 0.10 | 74 | 1007.2 |
| 20260903175505 | 82 | 148 | 3.0 | 4.0 | 0.00 | 0.10 | 0.10 | 71 | 1007.1 |
| 20260903175005 | 82 | 103 | 2.0 | 6.0 | 0.00 | 0.10 | 0.10 | 74 | 1007.1 |
| 20260903174500 | 82 | 190 | 5.0 | 8.0 | 0.00 | 0.10 | 0.10 | 74 | 1006.9 |
| 20260903174000 | 81 | 189 | 3.0 | 4.0 | 0.00 | 0.10 | 0.10 | 75 | 1007.1 |
| 20260903173455 | 80 | 181 | 2.0 | 10.0 | 0.00 | 0.10 | 0.10 | 77 | 1007.0 |
| 20260903172950 | 81 | 189 | 2.0 | 7.0 | 0.00 | 0.10 | 0.10 | 75 | 1007.1 |
| 20260903172445 | 81 | 211 | 2.0 | 5.0 | 0.00 | 0.10 | 0.10 | 74 | 1007.1 |
| 20260903171940 | 79 | 167 | 3.0 | 6.0 | 0.00 | 0.10 | 0.10 | 76 | 1007.2 |
| 20260903171431 | 80 | 179 | 2.0 | 6.0 | 0.00 | 0.10 | 0.10 | 75 | 1007.1 |
| 20260903170931 | 80 | 70 | 1.0 | 8.0 | 0.00 | 0.10 | 0.10 | 75 | 1007.4 |
| 20260903170425 | 79 | 208 | 3.0 | 11.0 | 0.00 | 0.10 | 0.10 | 78 | 1007.6 |
| 20260903165924 | 80 | 156 | 2.0 | 7.0 | 0.00 | 0.10 | 0.10 | 75 | 1007.3 |
| 20260903165418 | 80 | 158 | 3.0 | 5.0 | 0.00 | 0.10 | 0.10 | 77 | 1007.2 |
| 20260903164913 | 80 | 201 | 3.0 | 9.0 | 0.00 | 0.10 | 0.10 | 75 | 1007.0 |
| 20260903164408 | 80 | 200 | 5.0 | 7.0 | 0.00 | 0.10 | 0.10 | 74 | 1006.9 |
| 20260903163907 | 80 | 187 | 4.0 | 8.0 | 0.00 | 0.10 | 0.10 | 77 | 1007.0 |
| 20260903163404 | 79 | 192 | 3.0 | 7.0 | 0.00 | 0.10 | 0.10 | 79 | 1006.8 |
| 20260903162859 | 79 | 189 | 3.0 | 7.0 | 0.00 | 0.10 | 0.10 | 79 | 1006.7 |
| 20260903162356 | 78 | 193 | 5.0 | 13.0 | 0.00 | 0.10 | 0.10 | 78 | 1007.0 |
| 20260903161851 | 78 | 182 | 3.0 | 9.0 | 0.00 | 0.10 | 0.10 | 79 | 1007.0 |
| 20260903161346 | 79 | 196 | 5.0 | 8.0 | 0.00 | 0.10 | 0.10 | 76 | 1006.9 |
| 20260903160842 | 78 | 141 | 3.0 | 7.0 | 0.00 | 0.10 | 0.10 | 79 | 1006.9 |
| 20260903160341 | 77 | 194 | 4.0 | 7.0 | 0.00 | 0.10 | 0.10 | 81 | 1006.8 |
| 20260903155839 | 77 | 194 | 4.0 | 8.0 | 0.00 | 0.10 | 0.10 | 81 | 1006.8 |
| 20260903155335 | 76 | 200 | 5.0 | 7.0 | 0.00 | 0.10 | 0.10 | 84 | 1007.0 |
| 20260903154830 | 74 | 205 | 4.0 | 9.0 | 0.00 | 0.10 | 0.10 | 86 | 1007.0 |
| 20260903154327 | 74 | 207 | 4.0 | 9.0 | 0.00 | 0.10 | 0.10 | 86 | 1007.0 |
| 20260903153821 | 74 | 211 | 5.0 | 6.0 | 0.00 | 0.10 | 0.10 | 87 | 1007.4 |
| 20260903153317 | 74 | 206 | 4.0 | 7.0 | 0.00 | 0.10 | 0.10 | 86 | 1007.5 |
| 20260903152814 | 74 | 202 | 3.0 | 6.0 | 0.00 | 0.10 | 0.10 | 86 | 1007.3 |
| 20260903152310 | 73 | 222 | 3.0 | 5.0 | 0.00 | 0.10 | 0.10 | 87 | 1007.1 |
| 20260903151809 | 72 | 121 | 5.0 | 7.0 | 0.00 | 0.10 | 0.10 | 89 | 1006.9 |
| 20260903151305 | 71 | 198 | 3.0 | 5.0 | 0.00 | 0.10 | 0.10 | 91 | 1007.1 |
| 20260903150759 | 71 | 181 | 3.0 | 5.0 | 0.00 | 0.10 | 0.10 | 92 | 1007.1 |
| 20260903150254 | 71 | 197 | 4.0 | 5.0 | 0.00 | 0.10 | 0.10 | 92 | 1007.2 |
| 20260903145749 | 71 | 205 | 4.0 | 7.0 | 0.00 | 0.10 | 0.10 | 92 | 1007.6 |
| 20260903145244 | 71 | 189 | 3.0 | 5.0 | 0.00 | 0.10 | 0.10 | 93 | 1007.5 |
| 20260903144743 | 71 | 211 | 5.0 | 8.0 | 0.00 | 0.10 | 0.10 | 92 | 1007.9 |
| 20260903144239 | 71 | 213 | 5.0 | 6.0 | 0.00 | 0.10 | 0.10 | 92 | 1007.2 |
| 20260903143735 | 71 | 209 | 4.0 | 7.0 | 0.00 | 0.10 | 0.10 | 92 | 1007.1 |
| 20260903143231 | 71 | 177 | 2.0 | 4.0 | 0.00 | 0.10 | 0.10 | 91 | 1007.0 |
| 20260903142726 | 72 | 210 | 3.0 | 5.0 | 0.00 | 0.10 | 0.10 | 91 | 1007.0 |
| 20260903142222 | 71 | 180 | 2.0 | 7.0 | 0.00 | 0.10 | 0.10 | 92 | 1007.1 |
| 20260903141717 | 72 | 206 | 2.0 | 5.0 | 0.00 | 0.10 | 0.10 | 91 | 1006.6 |
| 20260903141213 | 72 | 184 | 2.0 | 6.0 | 0.00 | 0.10 | 0.10 | 91 | 1007.1 |
| 20260903140708 | 71 | 147 | 2.0 | 4.0 | 0.00 | 0.10 | 0.10 | 91 | 1007.0 |
| 20260903140203 | 71 | 220 | 3.0 | 4.0 | 0.00 | 0.10 | 0.10 | 92 | 1007.1 |
| 20260903135659 | 71 | 164 | 2.0 | 4.0 | 0.00 | 0.10 | 0.10 | 93 | 1007.3 |
| 20260903135154 | 71 | 240 | 0.0 | 3.0 | 0.00 | 0.10 | 0.10 | 94 | 1007.8 |
| 20260903134653 | 71 | 175 | 1.0 | 2.0 | 0.00 | 0.10 | 0.10 | 93 | 1008.0 |
| 20260903134149 | 71 | 212 | 0.0 | 3.0 | 0.02 | 0.10 | 0.10 | 92 | 1008.3 |
| 20260903133646 | 71 | 222 | 2.0 | 4.0 | 0.05 | 0.10 | 0.10 | 92 | 1008.3 |
| 20260903133142 | 71 | 217 | 1.0 | 5.0 | 0.02 | 0.09 | 0.09 | 91 | 1008.3 |
| 20260903132636 | 71 | 241 | 3.0 | 4.0 | 0.00 | 0.09 | 0.09 | 91 | 1008.5 |
| 20260903132131 | 71 | 272 | 2.0 | 4.0 | 0.00 | 0.09 | 0.09 | 91 | 1008.3 |
| 20260903131626 | 71 | 223 | 0.0 | 3.0 | 0.00 | 0.09 | 0.09 | 91 | 1007.6 |
| 20260903131125 | 72 | 211 | 0.0 | 4.0 | 0.00 | 0.09 | 0.09 | 90 | 1007.7 |
| 20260903130620 | 72 | 235 | 2.0 | 3.0 | 0.00 | 0.09 | 0.09 | 89 | 1008.1 |
| 20260903130114 | 72 | 269 | 2.0 | 3.0 | 0.00 | 0.09 | 0.09 | 89 | 1008.2 |
| 20260903125613 | 72 | 226 | 2.0 | 4.0 | 0.00 | 0.09 | 0.09 | 88 | 1008.3 |
| 20260903125108 | 72 | 214 | 2.0 | 4.0 | 0.00 | 0.09 | 0.09 | 88 | 1008.2 |
| 20260903124608 | 72 | 246 | 3.0 | 6.0 | 0.00 | 0.09 | 0.09 | 88 | 1008.8 |
| 20260903124107 | 72 | 255 | 2.0 | 5.0 | 0.00 | 0.09 | 0.09 | 88 | 1008.5 |
| 20260903123602 | 71 | 262 | 2.0 | 5.0 | 0.00 | 0.09 | 0.09 | 88 | 1008.6 |
| 20260903123100 | 70 | 246 | 3.0 | 7.0 | 0.00 | 0.09 | 0.09 | 92 | 1008.6 |
| 20260903122555 | 71 | 261 | 2.0 | 3.0 | 0.00 | 0.09 | 0.09 | 93 | 1008.3 |
| 20260903122055 | 71 | 247 | 0.0 | 2.0 | 0.00 | 0.09 | 0.09 | 91 | 1008.1 |
| 20260903121549 | 71 | 280 | 1.0 | 5.0 | 0.02 | 0.09 | 0.09 | 90 | 1008.5 |
| 20260903121045 | 71 | 246 | 2.0 | 6.0 | 0.02 | 0.09 | 0.09 | 90 | 1008.2 |